Weather History for Billings, MT

Change the Weather History Date:

Wednesday, May 7, 2014

  Actual Average Record
Temperature  
Mean Temperature 35 °F 53 °F  
Max Temperature 39 °F 65 °F 88 °F (1992)
Min Temperature 31 °F 41 °F 29 °F (2010)
Degree Days  
Heating Degree Days 30 13  
Month to date heating degree days 117 94  
Since 1 July heating degree days 6899 6471  
Cooling Degree Days 0 0  
Month to date cooling degree days 0 0  
Year to date cooling degree days 0 1  
Moisture  
Dew Point 32 °F    
Average Humidity 88    
Maximum Humidity 100    
Minimum Humidity 76    
Precipitation  
Precipitation 0.27 in 0.06 in 0.88 in (1988)
Month to date precipitation 0.72 0.44  
Year to date precipitation 6.30 4.12  
Snow  
Snow 2.10 in 0.10 in 2.90 in (2002)
Month to date snowfall 2.1 0.9  
Since 1 July snowfall 103.5 53.9  
Snow Depth T in    
Sea Level Pressure  
Sea Level Pressure 30.00 in    
Wind  
Wind Speed 9 mph (NE)    
Max Wind Speed 16 mph    
Max Gust Speed 20 mph    
Visibility 6 miles    
Events Fog , Rain , Snow    
T = Trace of Precipitation, MM = Missing Value Source: NWS Daily Summary

Daily Weather History Graph

Daily Weather History Graph

Search for Another Location

Airport:

Trip Planner

Search our weather history database for the weather conditions in past years. The results will help you decide how hot, cold, wet, or windy it might be!

Date:

Astronomy

May. 07, 2014 Rise Set
Actual Time 5:52 AM MDT 8:29 PM MDT
Civil Twilight 5:18 AM MDT 9:03 PM MDT
Nautical Twilight 4:36 AM MDT 9:46 PM MDT
Astronomical Twilight 3:47 AM MDT 10:35 PM MDT
Moon 1:15 PM MDT (5/7) 2:15 AM MDT (5/7)
Length of Visible Light 15h 44m
Length of Day
14h 36m
First Quarter, 56% of the Moon is Illuminated
May 7
First Quarter
May 14
Full
May 21
Last Quarter
May 28
New
Jun 5
First Quarter

Hourly Weather History & Observations

Time (MDT) Temp. Windchill Dew Point Humidity Pressure Visibility Wind Dir Wind Speed Gust Speed Precip Events Conditions
12:11 AM 37.9 °F 29.6 °F 36.0 °F 93% 29.93 in 10.0 mi NE 13.8 mph - 0.00 in Rain Light Rain
12:43 AM 37.9 °F 30.5 °F 36.0 °F 93% 29.94 in 10.0 mi NE 11.5 mph - 0.00 in Rain Light Rain
12:53 AM 37.9 °F 30.0 °F 35.1 °F 89% 29.97 in 10.0 mi NE 12.7 mph - 0.00 in Rain Light Rain
1:07 AM 37.0 °F 28.9 °F 35.1 °F 93% 29.94 in 10.0 mi NE 12.7 mph - 0.00 in Rain Light Rain
1:15 AM 37.0 °F 29.8 °F 35.1 °F 93% 29.95 in 10.0 mi NE 10.4 mph - 0.00 in   Overcast
1:27 AM 37.0 °F 29.8 °F 35.1 °F 93% 29.95 in 10.0 mi NNE 10.4 mph - 0.00 in   Overcast
1:43 AM 37.0 °F 28.9 °F 34.0 °F 89% 29.95 in 10.0 mi NE 12.7 mph - 0.00 in Rain , Snow Light Rain
1:53 AM 37.0 °F 28.9 °F 34.0 °F 89% 29.98 in 10.0 mi NNE 12.7 mph - 0.00 in Rain , Snow Light Rain
2:02 AM 37.0 °F 31.0 °F 34.0 °F 89% 29.95 in 7.0 mi NNE 8.1 mph - 0.00 in Rain Light Rain
2:14 AM 36.0 °F 29.6 °F 34.0 °F 93% 29.95 in 5.0 mi NNE 8.1 mph - 0.02 in Rain Light Rain
2:22 AM 35.1 °F 26.4 °F 33.1 °F 92% 29.95 in 5.0 mi NNE 12.7 mph - 0.02 in Rain , Snow Light Rain
2:53 AM 35.6 °F 27.1 °F 32.0 °F 87% 29.93 in 10.0 mi NNE 12.7 mph - N/A Rain , Snow Light Rain
3:03 AM 35.1 °F 26.9 °F 32.0 °F 89% 29.93 in 10.0 mi NNE 11.5 mph - 0.00 in Rain , Snow Light Rain
3:37 AM 35.1 °F 28.6 °F 33.1 °F 92% 29.94 in 10.0 mi North 8.1 mph - 0.00 in   Overcast
3:43 AM 35.6 °F 29.9 °F 33.8 °F 93% 29.94 in 10.0 mi North 6.9 mph - N/A   Overcast
3:53 AM 35.1 °F 29.3 °F 33.1 °F 92% 29.99 in 10.0 mi North 6.9 mph - 0.00 in   Overcast
4:17 AM 35.1 °F 27.9 °F 32.0 °F 89% 29.95 in 10.0 mi NNE 9.2 mph - 0.00 in Rain , Snow Light Rain
4:32 AM 34.0 °F 27.2 °F 32.0 °F 92% 29.96 in 10.0 mi NNE 8.1 mph - 0.00 in Rain , Snow Light Rain
4:53 AM 34.0 °F 28.0 °F 32.0 °F 92% 30.01 in 6.0 mi NNE 6.9 mph - 0.00 in Snow Light Snow
5:12 AM 33.1 °F 26.9 °F 32.0 °F 96% 29.96 in 2.5 mi NNE 6.9 mph - 0.01 in Snow Light Snow
5:22 AM 33.1 °F 26.9 °F 30.9 °F 92% 29.96 in 1.8 mi NNE 6.9 mph - 0.01 in Snow Light Snow
5:31 AM 32.0 °F 25.6 °F 30.9 °F 96% 29.96 in 1.5 mi North 6.9 mph - 0.02 in Snow Light Snow
5:53 AM 32.0 °F 24.2 °F 30.9 °F 96% 30.01 in 0.1 mi NNE 9.2 mph - 0.03 in Fog , Snow Light Snow
6:05 AM 32.0 °F 24.2 °F 30.9 °F 96% 29.96 in 0.1 mi NNE 9.2 mph - 0.01 in Fog , Snow Light Snow
6:14 AM 32.0 °F 23.6 °F 30.9 °F 96% 29.96 in 0.1 mi NNE 10.4 mph - 0.01 in Fog , Snow Light Snow
6:25 AM 32.0 °F 23.6 °F 30.9 °F 96% 29.96 in 0.1 mi NNE 10.4 mph - 0.01 in Fog , Snow Light Snow
6:37 AM 32.0 °F 22.5 °F 30.9 °F 96% 29.96 in 0.1 mi NE 12.7 mph - 0.02 in Fog , Snow Light Snow
6:46 AM 32.0 °F 22.5 °F 30.9 °F 96% 29.97 in 0.1 mi NNE 12.7 mph - 0.02 in Fog , Snow Light Snow
6:53 AM 32.0 °F 22.5 °F 30.9 °F 96% 30.03 in 0.2 mi NNE 12.7 mph - 0.02 in Fog , Snow Light Snow
7:19 AM 30.9 °F 20.7 °F 30.0 °F 96% 29.97 in 0.8 mi NNE 13.8 mph - 0.01 in Snow Light Snow
7:53 AM 30.9 °F 21.2 °F 30.0 °F 96% 30.04 in 0.8 mi NE 12.7 mph - 0.03 in Snow Light Snow
8:53 AM 30.9 °F 21.7 °F 30.0 °F 96% 30.05 in 0.5 mi NE 11.5 mph - 0.05 in Fog , Snow Snow
9:08 AM 30.9 °F 21.2 °F 30.0 °F 96% 29.98 in 1.0 mi NE 12.7 mph - 0.01 in Snow Light Snow
9:53 AM 32.0 °F 23.0 °F 30.0 °F 92% 30.05 in 1.0 mi NE 11.5 mph - 0.02 in Snow Light Snow
10:01 AM 32.0 °F 23.0 °F 30.0 °F 92% 29.99 in 1.5 mi NE 11.5 mph - 0.00 in Snow Light Snow
10:39 AM 32.0 °F 23.6 °F 30.9 °F 96% 29.99 in 1.0 mi NE 10.4 mph - 0.01 in Snow Light Snow
10:53 AM 33.1 °F 24.9 °F 30.9 °F 92% 30.06 in 1.0 mi NNE 10.4 mph - 0.02 in Snow Light Snow
11:19 AM 33.1 °F 25.5 °F 30.9 °F 92% 29.99 in 1.0 mi NE 9.2 mph - 0.01 in Snow Light Snow
11:53 AM 35.1 °F 27.4 °F 32.0 °F 89% 30.05 in 1.5 mi NE 10.4 mph - 0.01 in Snow Light Snow
12:53 PM 34.0 °F 26.0 °F 32.0 °F 92% 30.05 in 1.0 mi NE 10.4 mph - 0.02 in Snow Light Snow
1:53 PM 35.1 °F 27.4 °F 34.0 °F 96% 30.04 in 1.0 mi NE 10.4 mph - 0.03 in Snow Light Snow
1:58 PM 35.1 °F 26.9 °F 33.1 °F 92% 29.97 in 4.0 mi NE 11.5 mph - 0.00 in Snow Light Snow
2:21 PM 36.0 °F 27.1 °F 34.0 °F 93% 29.97 in 5.0 mi ENE 13.8 mph - 0.00 in Snow Light Snow
2:53 PM 37.0 °F 28.5 °F 34.0 °F 89% 30.04 in 9.0 mi NE 13.8 mph - 0.00 in Snow Light Snow
3:53 PM 37.9 °F 32.1 °F 33.1 °F 83% 30.03 in 10.0 mi NE 8.1 mph - 0.00 in   Overcast
4:53 PM 37.9 °F 30.9 °F 32.0 °F 79% 30.03 in 10.0 mi ENE 10.4 mph - N/A   Overcast
5:53 PM 39.0 °F 33.4 °F 32.0 °F 76% 30.04 in 10.0 mi ENE 8.1 mph - N/A   Overcast
6:15 PM 37.9 °F 33.5 °F 32.0 °F 79% 29.97 in 10.0 mi NE 5.8 mph - 0.00 in Rain Light Rain
6:53 PM 37.9 °F 31.5 °F 33.1 °F 83% 30.04 in 10.0 mi East 9.2 mph - 0.00 in Rain Light Rain
7:53 PM 37.0 °F 31.6 °F 32.0 °F 82% 30.05 in 10.0 mi ENE 6.9 mph - 0.00 in   Overcast
8:40 PM 37.0 °F 32.4 °F 32.0 °F 82% 29.99 in 10.0 mi ENE 5.8 mph - N/A   Mostly Cloudy
8:53 PM 37.0 °F 33.3 °F 32.0 °F 82% 30.07 in 10.0 mi ENE 4.6 mph - N/A   Mostly Cloudy
9:53 PM 36.0 °F 32.1 °F 32.0 °F 86% 30.07 in 10.0 mi NE 4.6 mph - N/A   Mostly Cloudy
10:53 PM 36.0 °F 33.3 °F 30.9 °F 82% 30.05 in 10.0 mi North 3.5 mph - N/A   Overcast
11:53 PM 37.0 °F - 30.9 °F 79% 30.04 in 10.0 mi Calm Calm - N/A   Overcast